CFG5L EDDF-LFBD

Flight info

Callsign CFG5L
Flight time 1h 32m
Altitude 36000
Route SOBRA2L/18 SOBRA Y180 DIK UN857 TOLVU/N0447F350 DCT RAPOR DCT GIMER/N0450F370 DCT AHVEC UN857 DISAK DCT ARKIP DCT ARNAV DCT LMG
Aircraft A339/H-SADE1E2E3GHIJ3J5M1P2RWXY/LB2D1

Departure

Time 2026-04-14 10:06
Airport Frankfurt Main Airport (EDDF)

Arrival

Time 2026-04-14 11:39
Airport Bordeaux–Mérignac Airport (LFBD)
Time Latitude Longitude Altitude Speed Heading
2026-04-14 09:19 50.04653 8.56814 379 ft 0 kts 295°
2026-04-14 09:46 50.04654 8.56829 376 ft 2 kts 351°
2026-04-14 09:46 50.04650 8.56835 375 ft 0 kts 21°
2026-04-14 09:50 50.04653 8.56837 375 ft 2 kts 21°
2026-04-14 09:50 50.04666 8.56864 379 ft 5 kts 52°
2026-04-14 09:51 50.04662 8.56915 377 ft 5 kts 103°
2026-04-14 09:51 50.04636 8.56930 379 ft 3 kts 173°
2026-04-14 09:51 50.04627 8.56919 378 ft 0 kts 204°
2026-04-14 09:53 50.04621 8.56916 373 ft 2 kts 199°
2026-04-14 09:53 50.04597 8.56908 375 ft 5 kts 193°
2026-04-14 09:54 50.04555 8.56893 377 ft 8 kts 193°
2026-04-14 09:54 50.04540 8.56888 373 ft 0 kts 193°
2026-04-14 09:55 50.04534 8.56886 373 ft 3 kts 193°
2026-04-14 09:55 50.04501 8.56874 373 ft 7 kts 193°
2026-04-14 09:56 50.04456 8.56830 379 ft 9 kts 229°
2026-04-14 09:56 50.04427 8.56726 375 ft 13 kts 249°
2026-04-14 09:56 50.04392 8.56580 377 ft 16 kts 250°
2026-04-14 09:56 50.04352 8.56410 376 ft 18 kts 250°
2026-04-14 09:57 50.04307 8.56223 377 ft 19 kts 250°
2026-04-14 09:57 50.04259 8.56022 376 ft 21 kts 250°
2026-04-14 09:57 50.04207 8.55804 374 ft 22 kts 249°
2026-04-14 09:57 50.04152 8.55575 374 ft 23 kts 250°
2026-04-14 09:58 50.04095 8.55335 377 ft 24 kts 250°
2026-04-14 09:58 50.04037 8.55093 378 ft 24 kts 250°
2026-04-14 09:58 50.03977 8.54843 377 ft 22 kts 249°
2026-04-14 09:58 50.03924 8.54624 376 ft 22 kts 250°
2026-04-14 09:59 50.03874 8.54413 378 ft 17 kts 249°
2026-04-14 09:59 50.03808 8.54249 377 ft 18 kts 243°
2026-04-14 09:59 50.03761 8.54058 376 ft 20 kts 250°
2026-04-14 09:59 50.03712 8.53855 376 ft 21 kts 250°
2026-04-14 10:00 50.03661 8.53644 376 ft 21 kts 248°
2026-04-14 10:00 50.03616 8.53465 374 ft 17 kts 250°
2026-04-14 10:00 50.03574 8.53288 376 ft 16 kts 249°
2026-04-14 10:00 50.03532 8.53117 377 ft 17 kts 249°
2026-04-14 10:01 50.03492 8.52948 376 ft 9 kts 250°
2026-04-14 10:01 50.03466 8.52849 378 ft 11 kts 245°
2026-04-14 10:01 50.03444 8.52767 375 ft 8 kts 248°
2026-04-14 10:01 50.03440 8.52752 379 ft 0 kts 249°
2026-04-14 10:04 50.03439 8.52748 379 ft 2 kts 249°
2026-04-14 10:04 50.03431 8.52717 379 ft 5 kts 249°
2026-04-14 10:05 50.03417 8.52661 378 ft 6 kts 249°
2026-04-14 10:05 50.03388 8.52607 378 ft 8 kts 214°
2026-04-14 10:05 50.03338 8.52593 376 ft 0 kts 180°
2026-04-14 10:06 50.03026 8.52598 377 ft 95 kts 179°
2026-04-14 10:06 50.02081 8.52608 380 ft 175 kts 179°
2026-04-14 10:06 50.00755 8.52646 980 ft 191 kts 179°
2026-04-14 10:06 49.99424 8.52707 2047 ft 192 kts 175°
2026-04-14 10:07 49.98061 8.52990 3008 ft 204 kts 171°
2026-04-14 10:07 49.96585 8.53173 3783 ft 220 kts 179°
2026-04-14 10:07 49.95008 8.53015 4689 ft 235 kts 185°
2026-04-14 10:07 49.93344 8.52816 5523 ft 243 kts 184°
2026-04-14 10:08 49.91670 8.52689 6379 ft 244 kts 182°
2026-04-14 10:08 49.89945 8.52664 6935 ft 251 kts 180°
2026-04-14 10:08 49.88195 8.52694 7050 ft 249 kts 179°
2026-04-14 10:08 49.86463 8.52755 7164 ft 249 kts 179°
2026-04-14 10:09 49.84727 8.52809 7185 ft 249 kts 180°
2026-04-14 10:09 49.82996 8.52850 7190 ft 249 kts 180°
2026-04-14 10:09 49.81280 8.52879 7190 ft 249 kts 180°
2026-04-14 10:09 49.79545 8.52906 7185 ft 248 kts 180°
2026-04-14 10:10 49.77798 8.52880 7177 ft 260 kts 187°
2026-04-14 10:10 49.76024 8.51931 7187 ft 277 kts 213°
2026-04-14 10:10 49.74675 8.49879 7179 ft 275 kts 239°
2026-04-14 10:10 49.74050 8.47115 7176 ft 273 kts 266°
2026-04-14 10:11 49.74293 8.44236 7184 ft 271 kts 291°
2026-04-14 10:11 49.75118 8.41619 7182 ft 270 kts 299°
2026-04-14 10:11 49.75971 8.39013 7182 ft 270 kts 295°
2026-04-14 10:11 49.76666 8.36344 7180 ft 270 kts 290°
2026-04-14 10:12 49.77231 8.33570 7186 ft 270 kts 287°
2026-04-14 10:12 49.77718 8.30749 7180 ft 271 kts 285°
2026-04-14 10:12 49.78174 8.27892 7393 ft 275 kts 284°
2026-04-14 10:12 49.78630 8.25000 8196 ft 275 kts 284°
2026-04-14 10:13 49.79086 8.22115 9008 ft 278 kts 283°
2026-04-14 10:13 49.79547 8.19214 9769 ft 282 kts 283°
2026-04-14 10:13 49.80020 8.16238 10475 ft 288 kts 282°
2026-04-14 10:13 49.80515 8.13113 10726 ft 310 kts 282°
2026-04-14 10:14 49.81048 8.09751 10958 ft 329 kts 282°
2026-04-14 10:14 49.81601 8.06267 11561 ft 335 kts 282°
2026-04-14 10:14 49.82152 8.02788 12252 ft 338 kts 282°
2026-04-14 10:14 49.82716 7.99218 12868 ft 342 kts 282°
2026-04-14 10:15 49.83280 7.95633 13110 ft 343 kts 282°
2026-04-14 10:15 49.83847 7.92013 13459 ft 347 kts 282°
2026-04-14 10:15 49.84414 7.88392 14214 ft 347 kts 282°
2026-04-14 10:15 49.84986 7.84730 14793 ft 351 kts 282°
2026-04-14 10:16 49.85562 7.81029 15383 ft 355 kts 282°
2026-04-14 10:16 49.86136 7.77328 15965 ft 358 kts 282°
2026-04-14 10:16 49.86726 7.73555 16540 ft 362 kts 282°
2026-04-14 10:16 49.87330 7.69720 17112 ft 366 kts 282°
2026-04-14 10:17 49.87931 7.65857 17671 ft 370 kts 282°
2026-04-14 10:17 49.88534 7.61951 18259 ft 374 kts 282°
2026-04-14 10:17 49.89142 7.58002 18801 ft 377 kts 282°
2026-04-14 10:17 49.89747 7.54070 19349 ft 379 kts 282°
2026-04-14 10:18 49.90979 7.46026 20445 ft 385 kts 282°
2026-04-14 10:18 49.91596 7.41989 20992 ft 388 kts 282°
2026-04-14 10:18 49.92220 7.37896 21530 ft 391 kts 282°
2026-04-14 10:19 49.92839 7.33825 22085 ft 393 kts 282°
2026-04-14 10:19 49.93468 7.29673 22650 ft 396 kts 281°
2026-04-14 10:19 49.94100 7.25492 23203 ft 399 kts 281°
2026-04-14 10:19 49.94737 7.21277 23756 ft 402 kts 281°
2026-04-14 10:20 49.95374 7.17035 24225 ft 405 kts 281°
2026-04-14 10:20 49.96016 7.12753 24703 ft 407 kts 281°
2026-04-14 10:20 49.96647 7.08532 25189 ft 409 kts 281°
2026-04-14 10:20 49.97307 7.04102 25652 ft 413 kts 281°
2026-04-14 10:21 49.97947 6.99798 26111 ft 415 kts 281°
2026-04-14 10:21 49.98597 6.95410 26572 ft 417 kts 281°
2026-04-14 10:21 49.99085 6.90937 27019 ft 419 kts 275°
2026-04-14 10:21 49.99223 6.86400 27480 ft 420 kts 268°
2026-04-14 10:22 49.99083 6.81904 27909 ft 423 kts 265°
2026-04-14 10:22 49.98931 6.77324 28346 ft 425 kts 266°
2026-04-14 10:22 49.98793 6.72721 28779 ft 428 kts 266°
2026-04-14 10:22 49.98657 6.68081 29210 ft 430 kts 266°
2026-04-14 10:23 49.98516 6.63410 29609 ft 433 kts 266°
2026-04-14 10:23 49.98206 6.58733 30015 ft 434 kts 259°
2026-04-14 10:23 49.97545 6.54210 30401 ft 436 kts 253°
2026-04-14 10:23 49.96524 6.49741 30748 ft 439 kts 246°
2026-04-14 10:24 49.95280 6.45395 31075 ft 441 kts 246°
2026-04-14 10:24 49.94037 6.41005 31431 ft 444 kts 246°
2026-04-14 10:24 49.92796 6.36586 31780 ft 447 kts 246°
2026-04-14 10:24 49.91565 6.32196 32122 ft 450 kts 246°
2026-04-14 10:25 49.90309 6.27736 32461 ft 453 kts 246°
2026-04-14 10:25 49.89011 6.23263 32758 ft 455 kts 245°
2026-04-14 10:25 49.87703 6.18754 33037 ft 458 kts 246°
2026-04-14 10:25 49.86371 6.14253 33269 ft 460 kts 243°
2026-04-14 10:26 49.84772 6.10017 33486 ft 462 kts 236°
2026-04-14 10:26 49.82906 6.05940 33659 ft 464 kts 234°
2026-04-14 10:26 49.81025 6.01876 33918 ft 464 kts 234°
2026-04-14 10:26 49.79147 5.97805 34172 ft 464 kts 234°
2026-04-14 10:27 49.77273 5.93738 34381 ft 464 kts 234°
2026-04-14 10:27 49.75437 5.89615 34570 ft 464 kts 238°
2026-04-14 10:27 49.73883 5.85252 34788 ft 463 kts 244°
2026-04-14 10:27 49.72660 5.80726 34994 ft 463 kts 250°
2026-04-14 10:28 49.71600 5.76030 35206 ft 463 kts 250°
2026-04-14 10:28 49.70528 5.71342 35390 ft 463 kts 250°
2026-04-14 10:28 49.69440 5.66641 35599 ft 463 kts 250°
2026-04-14 10:28 49.68352 5.61971 35817 ft 462 kts 250°
2026-04-14 10:29 49.67258 5.57293 36014 ft 463 kts 250°
2026-04-14 10:29 49.66160 5.52616 36167 ft 463 kts 250°
2026-04-14 10:29 49.64336 5.44856 36193 ft 461 kts 250°
2026-04-14 10:30 49.62143 5.35555 36196 ft 461 kts 250°
2026-04-14 10:30 49.60124 5.26155 36195 ft 460 kts 252°
2026-04-14 10:31 49.58214 5.16773 36201 ft 461 kts 254°
2026-04-14 10:31 49.56585 5.07200 36203 ft 460 kts 255°
2026-04-14 10:32 49.54949 4.97715 36208 ft 460 kts 255°
2026-04-14 10:32 49.53254 4.88195 36211 ft 460 kts 254°
2026-04-14 10:33 49.51554 4.78747 36213 ft 460 kts 254°
2026-04-14 10:33 49.49838 4.69260 36215 ft 459 kts 254°
2026-04-14 10:34 49.47253 4.55060 36219 ft 459 kts 254°
2026-04-14 10:35 49.45534 4.45667 36222 ft 458 kts 254°
2026-04-14 10:35 49.43796 4.36229 36225 ft 458 kts 254°
2026-04-14 10:36 49.42057 4.26823 36220 ft 458 kts 254°
2026-04-14 10:36 49.40317 4.17470 36225 ft 457 kts 253°
2026-04-14 10:37 49.38564 4.08087 36220 ft 457 kts 253°
2026-04-14 10:37 49.36520 3.98853 36225 ft 456 kts 246°
2026-04-14 10:38 49.33513 3.90300 36218 ft 456 kts 237°
2026-04-14 10:38 49.29990 3.82281 36225 ft 456 kts 236°
2026-04-14 10:39 49.26478 3.74211 36224 ft 455 kts 236°
2026-04-14 10:39 49.22955 3.66140 36225 ft 455 kts 236°
2026-04-14 10:40 49.19435 3.58104 36218 ft 454 kts 236°
2026-04-14 10:40 49.15931 3.50133 36227 ft 454 kts 236°
2026-04-14 10:41 49.12403 3.42130 36220 ft 453 kts 236°
2026-04-14 10:41 49.08874 3.34153 36223 ft 453 kts 236°
2026-04-14 10:42 49.05360 3.26230 36219 ft 452 kts 236°
2026-04-14 10:42 49.01825 3.18280 36222 ft 451 kts 236°
2026-04-14 10:43 48.98295 3.10367 36216 ft 451 kts 236°
2026-04-14 10:43 48.94783 3.02521 36224 ft 450 kts 236°
2026-04-14 10:44 48.92110 2.96561 36216 ft 450 kts 236°
2026-04-14 10:44 48.88625 2.88815 36221 ft 449 kts 235°
2026-04-14 10:45 48.85093 2.80982 36215 ft 448 kts 235°
2026-04-14 10:45 48.81579 2.73210 36208 ft 448 kts 235°
2026-04-14 10:46 48.78041 2.65413 36226 ft 448 kts 235°
2026-04-14 10:46 48.74501 2.57635 36214 ft 448 kts 235°
2026-04-14 10:47 48.70974 2.49903 36215 ft 448 kts 235°
2026-04-14 10:47 48.67425 2.42149 36221 ft 448 kts 235°
2026-04-14 10:48 48.63870 2.34403 36212 ft 448 kts 235°
2026-04-14 10:48 48.60274 2.26684 36219 ft 447 kts 231°
2026-04-14 10:49 48.55678 2.20489 36206 ft 448 kts 212°
2026-04-14 10:49 48.49918 2.16901 36209 ft 452 kts 194°
2026-04-14 10:50 48.43746 2.14974 36202 ft 452 kts 193°
2026-04-14 10:50 48.37634 2.13006 36208 ft 452 kts 194°
2026-04-14 10:51 48.31463 2.11186 36201 ft 453 kts 189°
2026-04-14 10:51 48.25127 2.10809 36213 ft 456 kts 179°
2026-04-14 10:52 48.18853 2.11966 36210 ft 457 kts 174°
2026-04-14 10:52 48.12515 2.12748 36216 ft 454 kts 182°
2026-04-14 10:53 48.06284 2.11886 36212 ft 451 kts 189°
2026-04-14 10:53 48.00042 2.10635 36226 ft 451 kts 189°
2026-04-14 10:54 47.93846 2.09441 36222 ft 451 kts 189°
2026-04-14 10:54 47.87630 2.08256 36228 ft 450 kts 189°
2026-04-14 10:55 47.81413 2.07073 36218 ft 450 kts 189°
2026-04-14 10:55 47.75194 2.05891 36219 ft 450 kts 189°
2026-04-14 10:56 47.68981 2.04714 36211 ft 449 kts 189°
2026-04-14 10:56 47.62866 2.03103 36214 ft 447 kts 196°
2026-04-14 10:57 47.57002 2.00024 36204 ft 446 kts 203°
2026-04-14 10:57 47.51230 1.96622 36212 ft 446 kts 202°
2026-04-14 10:58 47.45473 1.93282 36207 ft 446 kts 202°
2026-04-14 10:58 47.39679 1.89941 36225 ft 446 kts 202°
2026-04-14 10:59 47.33901 1.86616 36216 ft 446 kts 202°
2026-04-14 10:59 47.28111 1.83291 36215 ft 446 kts 202°
2026-04-14 11:00 47.22356 1.79995 36220 ft 446 kts 202°
2026-04-14 11:00 47.16564 1.76701 36216 ft 446 kts 202°
2026-04-14 11:01 47.10766 1.73441 36059 ft 444 kts 202°
2026-04-14 11:01 47.07900 1.71830 35924 ft 444 kts 202°
2026-04-14 11:01 47.05007 1.70206 35928 ft 446 kts 202°
2026-04-14 11:02 46.99216 1.66958 35768 ft 445 kts 202°
2026-04-14 11:02 46.93464 1.63738 35402 ft 445 kts 202°
2026-04-14 11:02 46.90576 1.62125 34994 ft 443 kts 202°
2026-04-14 11:03 46.87693 1.60516 34575 ft 440 kts 202°
2026-04-14 11:03 46.84834 1.58922 34145 ft 438 kts 202°
2026-04-14 11:03 46.82021 1.57355 33636 ft 436 kts 202°
2026-04-14 11:03 46.79187 1.55776 33138 ft 436 kts 201°
2026-04-14 11:04 46.76350 1.54199 32663 ft 434 kts 201°
2026-04-14 11:04 46.73539 1.52639 32192 ft 431 kts 201°
2026-04-14 11:04 46.70738 1.51086 31715 ft 429 kts 201°
2026-04-14 11:04 46.67945 1.49540 31261 ft 425 kts 201°
2026-04-14 11:05 46.65226 1.48036 30816 ft 419 kts 201°
2026-04-14 11:05 46.62516 1.46538 30370 ft 411 kts 201°
2026-04-14 11:05 46.59857 1.45070 29848 ft 405 kts 201°
2026-04-14 11:05 46.57222 1.43619 29341 ft 405 kts 201°
2026-04-14 11:06 46.54585 1.42168 28839 ft 404 kts 200°
2026-04-14 11:06 46.51993 1.40741 28342 ft 401 kts 200°
2026-04-14 11:06 46.49387 1.39310 27853 ft 398 kts 200°
2026-04-14 11:06 46.46789 1.37883 27381 ft 398 kts 200°
2026-04-14 11:07 46.44200 1.36463 26912 ft 396 kts 200°
2026-04-14 11:07 46.41655 1.35068 26458 ft 393 kts 200°
2026-04-14 11:07 46.39106 1.33672 25990 ft 391 kts 200°
2026-04-14 11:07 46.36563 1.32282 25566 ft 390 kts 200°
2026-04-14 11:08 46.34026 1.30896 25270 ft 388 kts 200°
2026-04-14 11:08 46.31495 1.29515 25022 ft 388 kts 200°
2026-04-14 11:08 46.28962 1.28135 24774 ft 388 kts 200°
2026-04-14 11:08 46.26428 1.26754 24552 ft 388 kts 200°
2026-04-14 11:09 46.23941 1.25400 24315 ft 386 kts 200°
2026-04-14 11:09 46.21420 1.24030 24075 ft 385 kts 200°
2026-04-14 11:09 46.18912 1.22668 23835 ft 385 kts 200°
2026-04-14 11:10 46.13888 1.19946 23288 ft 383 kts 200°
2026-04-14 11:10 46.11420 1.18611 23008 ft 381 kts 200°
2026-04-14 11:10 46.08936 1.17267 22734 ft 381 kts 200°
2026-04-14 11:10 46.06445 1.15922 22474 ft 382 kts 200°
2026-04-14 11:11 46.03962 1.14581 22202 ft 380 kts 200°
2026-04-14 11:11 46.01486 1.13245 21939 ft 378 kts 200°
2026-04-14 11:11 45.99028 1.11921 21665 ft 378 kts 200°
2026-04-14 11:11 45.96554 1.10589 21403 ft 378 kts 200°
2026-04-14 11:12 45.94092 1.09264 21150 ft 376 kts 200°
2026-04-14 11:12 45.91646 1.07950 20894 ft 375 kts 200°
2026-04-14 11:12 45.89207 1.06641 20631 ft 375 kts 200°
2026-04-14 11:12 45.86790 1.05345 20380 ft 374 kts 200°
2026-04-14 11:13 45.84362 1.04011 20131 ft 372 kts 204°
2026-04-14 11:13 45.82106 1.02167 19887 ft 372 kts 215°
2026-04-14 11:13 45.80178 0.99702 19629 ft 373 kts 226°
2026-04-14 11:13 45.78594 0.96741 19396 ft 373 kts 233°
2026-04-14 11:14 45.77108 0.93746 19166 ft 371 kts 233°
2026-04-14 11:14 45.75597 0.90744 18916 ft 369 kts 232°
2026-04-14 11:14 45.74098 0.87792 18669 ft 368 kts 232°
2026-04-14 11:14 45.73079 0.85793 18514 ft 368 kts 232°
2026-04-14 11:15 45.71074 0.81869 18148 ft 367 kts 233°
2026-04-14 11:15 45.70073 0.79913 17968 ft 367 kts 233°
2026-04-14 11:15 45.68568 0.76966 17692 ft 366 kts 233°
2026-04-14 11:15 45.67056 0.74011 17425 ft 366 kts 233°
2026-04-14 11:16 45.65551 0.71081 17157 ft 365 kts 233°
2026-04-14 11:16 45.64048 0.68151 16895 ft 364 kts 233°
2026-04-14 11:16 45.62547 0.65229 16630 ft 364 kts 233°
2026-04-14 11:16 45.61063 0.62344 16368 ft 364 kts 234°
2026-04-14 11:17 45.59561 0.59429 16104 ft 363 kts 234°
2026-04-14 11:17 45.58062 0.56517 15862 ft 362 kts 234°
2026-04-14 11:17 45.56575 0.53627 15611 ft 361 kts 234°
2026-04-14 11:17 45.55082 0.50731 15357 ft 361 kts 234°
2026-04-14 11:18 45.53592 0.47854 15102 ft 360 kts 234°
2026-04-14 11:18 45.52126 0.45018 14859 ft 359 kts 234°
2026-04-14 11:18 45.50649 0.42162 14629 ft 358 kts 234°
2026-04-14 11:18 45.49164 0.39294 14449 ft 359 kts 235°
2026-04-14 11:19 45.47679 0.36424 14252 ft 357 kts 235°
2026-04-14 11:19 45.46205 0.33579 14062 ft 355 kts 235°
2026-04-14 11:19 45.44782 0.30840 13834 ft 339 kts 235°
2026-04-14 11:19 45.43411 0.28201 13612 ft 322 kts 235°
2026-04-14 11:20 45.42108 0.25701 13392 ft 306 kts 235°
2026-04-14 11:20 45.40864 0.23324 13170 ft 292 kts 235°
2026-04-14 11:20 45.39662 0.21024 12969 ft 294 kts 235°
2026-04-14 11:20 45.38438 0.18673 12752 ft 294 kts 236°
2026-04-14 11:21 45.37219 0.16332 12535 ft 292 kts 236°
2026-04-14 11:21 45.36008 0.14011 12327 ft 292 kts 236°
2026-04-14 11:21 45.34799 0.11689 12120 ft 292 kts 236°
2026-04-14 11:21 45.33618 0.09394 11902 ft 290 kts 236°
2026-04-14 11:22 45.32425 0.07067 11712 ft 291 kts 236°
2026-04-14 11:22 45.31239 0.04753 11506 ft 289 kts 236°
2026-04-14 11:22 45.30058 0.02450 11294 ft 288 kts 236°
2026-04-14 11:22 45.28875 0.00145 11081 ft 288 kts 236°
2026-04-14 11:23 45.27697 -0.02155 10895 ft 288 kts 237°
2026-04-14 11:23 45.26534 -0.04423 10698 ft 286 kts 236°
2026-04-14 11:23 45.25357 -0.06703 10507 ft 285 kts 236°
2026-04-14 11:23 45.24178 -0.08982 10293 ft 285 kts 236°
2026-04-14 11:24 45.23021 -0.11225 10107 ft 284 kts 236°
2026-04-14 11:24 45.21854 -0.13491 9892 ft 283 kts 236°
2026-04-14 11:24 45.20690 -0.15739 9671 ft 282 kts 236°
2026-04-14 11:24 45.19529 -0.17982 9452 ft 281 kts 236°
2026-04-14 11:25 45.18371 -0.20220 9232 ft 281 kts 236°
2026-04-14 11:25 45.17217 -0.22449 8974 ft 279 kts 236°
2026-04-14 11:25 45.15945 -0.24527 8700 ft 279 kts 227°
2026-04-14 11:25 45.14571 -0.26472 8443 ft 279 kts 227°
2026-04-14 11:26 45.13218 -0.28406 8187 ft 278 kts 228°
2026-04-14 11:26 45.11865 -0.30351 7928 ft 276 kts 228°
2026-04-14 11:26 45.10507 -0.32295 7668 ft 276 kts 226°
2026-04-14 11:26 45.08933 -0.33859 7410 ft 278 kts 208°
2026-04-14 11:27 45.07119 -0.34720 7181 ft 279 kts 197°
2026-04-14 11:27 45.05386 -0.35895 6917 ft 274 kts 221°
2026-04-14 11:27 45.04166 -0.37917 6683 ft 269 kts 238°
2026-04-14 11:27 45.03060 -0.40067 6414 ft 270 kts 235°
2026-04-14 11:28 45.01920 -0.42133 6159 ft 268 kts 234°
2026-04-14 11:28 45.00765 -0.44205 5892 ft 267 kts 234°
2026-04-14 11:28 44.99623 -0.46270 5509 ft 267 kts 235°
2026-04-14 11:28 44.98489 -0.48349 5266 ft 265 kts 235°
2026-04-14 11:29 44.97309 -0.50267 4995 ft 252 kts 221°
2026-04-14 11:29 44.95759 -0.51293 4742 ft 246 kts 192°
2026-04-14 11:29 44.94109 -0.51182 4433 ft 242 kts 163°
2026-04-14 11:29 44.92693 -0.49964 4103 ft 237 kts 133°
2026-04-14 11:30 44.91906 -0.47926 3788 ft 238 kts 103°
2026-04-14 11:30 44.91802 -0.45624 3459 ft 236 kts 78°
2026-04-14 11:30 44.92284 -0.43420 3130 ft 233 kts 70°
2026-04-14 11:30 44.92876 -0.41320 2995 ft 229 kts 56°
2026-04-14 11:31 44.93973 -0.39720 2998 ft 232 kts 38°
2026-04-14 11:31 44.95435 -0.38813 2998 ft 231 kts
2026-04-14 11:31 44.96998 -0.39123 3002 ft 229 kts 334°
2026-04-14 11:31 44.98296 -0.40365 3003 ft 226 kts 320°
2026-04-14 11:32 44.99557 -0.41706 2997 ft 226 kts 320°
2026-04-14 11:32 45.00778 -0.43078 3005 ft 222 kts 313°
2026-04-14 11:32 45.01381 -0.44947 2993 ft 208 kts 272°
2026-04-14 11:32 45.00943 -0.46757 3013 ft 191 kts 229°
2026-04-14 11:33 44.99881 -0.47791 2907 ft 184 kts 211°
2026-04-14 11:33 44.98844 -0.48779 2992 ft 183 kts 218°
2026-04-14 11:33 44.97893 -0.49964 3000 ft 181 kts 225°
2026-04-14 11:34 44.96148 -0.52514 2987 ft 175 kts 225°
2026-04-14 11:34 44.95342 -0.53673 2999 ft 160 kts 226°
2026-04-14 11:34 44.94592 -0.54758 2998 ft 155 kts 226°
2026-04-14 11:34 44.93805 -0.55882 2960 ft 163 kts 226°
2026-04-14 11:35 44.93009 -0.57029 2759 ft 163 kts 225°
2026-04-14 11:35 44.92226 -0.58138 2553 ft 153 kts 225°
2026-04-14 11:35 44.91510 -0.59175 2362 ft 143 kts 225°
2026-04-14 11:35 44.90841 -0.60132 2144 ft 135 kts 225°
2026-04-14 11:36 44.90162 -0.61101 1980 ft 140 kts 225°
2026-04-14 11:36 44.89494 -0.62059 1768 ft 135 kts 225°
2026-04-14 11:36 44.88837 -0.63008 1565 ft 138 kts 225°
2026-04-14 11:36 44.88158 -0.63975 1410 ft 139 kts 225°
2026-04-14 11:37 44.87486 -0.64930 1182 ft 133 kts 224°
2026-04-14 11:37 44.86831 -0.65843 1015 ft 134 kts 224°
2026-04-14 11:37 44.86173 -0.66801 833 ft 136 kts 224°
2026-04-14 11:37 44.85540 -0.67732 658 ft 132 kts 224°
2026-04-14 11:38 44.84888 -0.68663 473 ft 133 kts 223°
2026-04-14 11:38 44.84235 -0.69589 306 ft 135 kts 224°
2026-04-14 11:38 44.83583 -0.70526 170 ft 130 kts 224°
2026-04-14 11:38 44.83118 -0.71175 170 ft 50 kts 226°
2026-04-14 11:39 44.83037 -0.71291 170 ft 6 kts 226°
2026-04-14 11:39 44.83002 -0.71343 170 ft 8 kts 226°
2026-04-14 11:39 44.82957 -0.71407 170 ft 10 kts 225°